2015 HP43

Initial reported observation by Catalina Sky Survey on 2015-04-23.
(Discoverer will be defined when the object is numbered. See this note on how discoverers are determined.)

Orbit

Orbit type: Amor
Near-Earth Object
One opposition object seen prior.

Note: WebGL enabled browser required.

A geocentric flyby diagram is available here.

epoch2019-04-27.0
epoch JD2458600.5
perihelion date2018-09-13.13914
perihelion JD2458374.63914
argument of perihelion (°)162.58367
ascending node (°)62.91709
inclination (°)17.54009
eccentricity0.4944266
perihelion distance (AU)1.1319098
Tisserand w.r.t. Jupiter3.4
ΔV w.r.t. Earth (km/sec)8.1
semimajor axis (AU)2.2388635
mean anomaly (°)66.45129
mean daily motion (°/day)0.29421340
aphelion distance (AU)3.346
period (years)3.35
P-vector [x]-0.68850964
P-vector [y]-0.69609730
P-vector [z]-0.20347732
Q-vector [x]0.67376188
Q-vector [y]-0.51014906
Q-vector [z]-0.53459598
absolute magnitude21.1
phase slope0.15
uncertainty4
referenceMPO 438014
observations used283
oppositions1
arc length (days)50
first opposition used2015
last opposition used2015
residual rms (arc-secs)0.33
perturbers coarse indicatorM-v
perturbers precise indicator0038h
first observation date used2015-04-23.0
last observation date used2015-06-12.0
computer nameMPCLINUX
JD of orbit computation2458158.037093
perihelion JD uncertainty (days)2.2710E-02
argument of perihelion uncertainty (°)6.5038E-05
ascending node uncertainty (°)1.1080E-05
inclination uncertainty (°)1.2202E-04
eccentricity uncertainty 5.8056E-06
perihelion distance uncertainty (AU)9.5239E-07
Minimum Orbit Intersection Distances (in AU)
for orbit epoch: 2458600.5, reference: MPO438014
Mercury0.67917
Venus0.4107
Earth0.13192
Mars0.24927
Jupiter1.66346
Saturn5.8649
Uranus16.1274
Neptune26.5668

Observations

284 total observations over interval: 2015 04 23.38343 – 2015 06 12.25855
These data are available for download (format description).

Date (UT) J2000 RA J2000 Dec Magn Location Ref
2015 04 23.38343 15 18 50.75 +40 12 02.2 19.9 V 703 – Catalina Sky Survey MPS 603420
2015 04 23.38900 15 18 50.92 +40 11 47.5 19.5 V 703 – Catalina Sky Survey MPS 603420
2015 04 23.39441 15 18 51.12 +40 11 34.4 19.5 V 703 – Catalina Sky Survey MPS 603420
2015 04 23.39968 15 18 51.24 +40 11 21.5 19.6 V 703 – Catalina Sky Survey MPS 603420
2015 04 23.424237 15 18 51.80 +40 10 16.4 19.1 R H01 – Magdalena Ridge Observatory, Socorro MPS 603420
2015 04 23.431190 15 18 52.01 +40 09 58.5 19.0 R H01 – Magdalena Ridge Observatory, Socorro MPS 603420
2015 04 23.436479 15 18 52.17 +40 09 44.9 18.9 R H01 – Magdalena Ridge Observatory, Socorro MPS 603420
2015 04 23.449859 15 18 52.59 +40 09 10.2 19.1 R H01 – Magdalena Ridge Observatory, Socorro MPS 603420
2015 04 23.47482 15 18 53.53 +40 08 07.8 19.3 R 291 – LPL/Spacewatch II MPS 603420
2015 04 23.47657 15 18 53.59 +40 08 03.4 19.4 R 291 – LPL/Spacewatch II MPS 603420
2015 04 23.47830 15 18 53.64 +40 07 58.8 19.4 R 291 – LPL/Spacewatch II MPS 603420
2015 04 23.68651 15 19 05.09 +39 59 13.5 19.1 R 300 – Bisei Spaceguard Center-BATTeRS MPS 603420
2015 04 23.69043 15 19 05.23 +39 59 03.3 19.4 R 300 – Bisei Spaceguard Center-BATTeRS MPS 603420
2015 04 23.69413 15 19 05.31 +39 58 54.2 19.1 R 300 – Bisei Spaceguard Center-BATTeRS MPS 603420
2015 04 23.69783 15 19 05.41 +39 58 45.2 19.1 R 300 – Bisei Spaceguard Center-BATTeRS MPS 603420
2015 04 23.82801 15 19 13.67 +39 52 48.3 19.3 V 033 – Karl Schwarzschild Observatory, Tautenburg MPS 603420
2015 04 23.83038 15 19 13.77 +39 52 42.5 19.3 V 033 – Karl Schwarzschild Observatory, Tautenburg MPS 603420
2015 04 23.83274 15 19 13.86 +39 52 36.5 19.5 V 033 – Karl Schwarzschild Observatory, Tautenburg MPS 603420
2015 04 23.86583 15 19 15.11 +39 51 14.0 19.5 V C43 – Hoyerswerda MPS 603420
2015 04 23.86663 15 19 15.72 +39 51 11.3 19.8 V 958 – Observatoire de Dax MPS 603420
2015 04 23.87380 15 19 15.31 +39 50 53.6 19.6 V C43 – Hoyerswerda MPS 603420
2015 04 23.87489 15 19 16.07 +39 50 51.2 19.9 V 958 – Observatoire de Dax MPS 603420
2015 04 23.88056 15 19 15.64 +39 50 36.7 20.0 R 113 – Volkssternwarte Drebach, Schoenbrunn MPS 603420
2015 04 23.88305 15 19 15.65 +39 50 30.2 19.6 V C43 – Hoyerswerda MPS 603420
2015 04 23.88315 15 19 16.40 +39 50 30.1 19.5 V 958 – Observatoire de Dax MPS 603420
2015 04 23.88412 15 19 15.79 +39 50 28.3 19.8 R 113 – Volkssternwarte Drebach, Schoenbrunn MPS 603420
2015 04 23.88769 15 19 15.95 +39 50 19.0 19.7 R 113 – Volkssternwarte Drebach, Schoenbrunn MPS 603420
2015 04 23.91924 15 19 17.05 +39 48 59.0 19.3 V 033 – Karl Schwarzschild Observatory, Tautenburg MPS 603420
2015 04 23.92160 15 19 17.15 +39 48 53.1 19.0 V 033 – Karl Schwarzschild Observatory, Tautenburg MPS 603420
2015 04 23.92397 15 19 17.22 +39 48 47.0 19.0 V 033 – Karl Schwarzschild Observatory, Tautenburg MPS 603420
2015 04 24.01241 15 19 20.20 +39 45 02.3   204 – Schiaparelli Observatory MPS 628803
2015 04 24.02296 15 19 20.53 +39 44 34.5   204 – Schiaparelli Observatory MPS 628803
2015 04 24.03352 15 19 20.83 +39 44 07.0 19.4 R 204 – Schiaparelli Observatory MPS 628803
2015 04 24.25978 15 19 32.91 +39 34 14.1 19.3 V I52 – Steward Observatory, Mt. Lemmon Station MPS 603420
2015 04 24.26599 15 19 33.06 +39 33 58.2 19.5 V I52 – Steward Observatory, Mt. Lemmon Station MPS 603420
2015 04 24.26833 15 19 33.15 +39 33 52.1 19.4 V I52 – Steward Observatory, Mt. Lemmon Station MPS 603420
2015 04 24.27173 15 19 33.28 +39 33 43.7 20.5 V I52 – Steward Observatory, Mt. Lemmon Station MPS 603420
2015 04 24.27386 15 19 33.32 +39 33 37.2 19.1 V I52 – Steward Observatory, Mt. Lemmon Station MPS 603420
2015 04 24.27636 15 19 33.38 +39 33 31.3 19.5 V I52 – Steward Observatory, Mt. Lemmon Station MPS 603420
2015 04 24.84487 15 19 59.27 +39 07 25.1 19.3 V C43 – Hoyerswerda MPS 603420
2015 04 24.84705 15 19 59.32 +39 07 19.5 19.2 V C43 – Hoyerswerda MPS 603420
2015 04 24.84944 15 19 59.38 +39 07 13.0 19.6 V C43 – Hoyerswerda MPS 603420
2015 04 24.90576 15 20 01.54 +39 04 42.7   595 – Farra d'Isonzo MPS 603420
2015 04 24.91763 15 20 01.88 +39 04 10.5 20.0 V 595 – Farra d'Isonzo MPS 603420
2015 04 24.92486 15 20 02.02 +39 03 47.7 18.7 R K61 – Rokycany Observatory MPS 603420
2015 04 24.92572 15 20 02.04 +39 03 45.2 18.7 R K61 – Rokycany Observatory MPS 603420
2015 04 24.92644 15 20 02.06 +39 03 43.3 18.7 R K61 – Rokycany Observatory MPS 603420
2015 04 24.93762 15 20 02.45 +39 03 14.3   246 – Klet Observatory-KLENOT MPS 603420
2015 04 24.93819 15 20 02.46 +39 03 12.9   246 – Klet Observatory-KLENOT MPS 603420
2015 04 24.93855 15 20 02.45 +39 03 11.6   246 – Klet Observatory-KLENOT MPS 603420
2015 04 24.93891 15 20 02.48 +39 03 10.4   246 – Klet Observatory-KLENOT MPS 603420
2015 04 24.93928 15 20 02.47 +39 03 09.9   246 – Klet Observatory-KLENOT MPS 603420
2015 04 24.94016 15 20 02.52 +39 03 07.2   246 – Klet Observatory-KLENOT MPS 603420
2015 04 24.94042 15 20 02.55 +39 03 06.6   246 – Klet Observatory-KLENOT MPS 603420
2015 04 24.94078 15 20 02.53 +39 03 05.8 18.7 R 246 – Klet Observatory-KLENOT MPS 603420
2015 04 24.94135 15 20 02.52 +39 03 03.8 19.0 R 246 – Klet Observatory-KLENOT MPS 603420
2015 04 24.94167 15 20 02.60 +39 03 02.8   246 – Klet Observatory-KLENOT MPS 603420
2015 04 24.94429 15 20 02.66 +39 02 55.1 18.3 R K61 – Rokycany Observatory MPS 603420
2015 04 24.94630 15 20 02.68 +39 02 49.6 18.3 R K61 – Rokycany Observatory MPS 603420
2015 04 24.94759 15 20 02.69 +39 02 45.7 18.3 R K61 – Rokycany Observatory MPS 603420
2015 04 24.94843 15 20 02.41 +39 02 46.6 19.3 V L04 – ROASTERR-1 Observatory, Cluj-Napoca MPS 603420
2015 04 24.95710 15 20 02.69 +39 02 22.3 19.5 V L04 – ROASTERR-1 Observatory, Cluj-Napoca MPS 603420
2015 04 24.96373 15 20 02.88 +39 02 04.0 19.4 V L04 – ROASTERR-1 Observatory, Cluj-Napoca MPS 603420
2015 04 24.96762 15 20 03.34 +39 01 50.5 18.4 R K61 – Rokycany Observatory MPS 603420
2015 04 24.96847 15 20 03.39 +39 01 48.0 18.3 R K61 – Rokycany Observatory MPS 603420
2015 04 24.96961 15 20 03.42 +39 01 44.9 18.2 R K61 – Rokycany Observatory MPS 603420
2015 04 25.158562 15 20 13.92 +38 52 53.4 19.5 R V37 – McDonald Observatory-LCO ELP MPS 603420
2015 04 25.162884 15 20 14.08 +38 52 41.7 19.3 R V37 – McDonald Observatory-LCO ELP MPS 603420
2015 04 25.167211 15 20 14.22 +38 52 29.8 19.4 R V37 – McDonald Observatory-LCO ELP MPS 603420
2015 04 25.171530 15 20 14.37 +38 52 18.2 19.5 R V37 – McDonald Observatory-LCO ELP MPS 603420
2015 04 25.176728 15 20 14.55 +38 52 04.2 19.6 R V37 – McDonald Observatory-LCO ELP MPS 603420
2015 04 25.37141 15 20 20.21 +38 42 56.6 19.6 R 926 – Tenagra II Observatory, Nogales MPS 603420
2015 04 25.38457 15 20 20.53 +38 42 18.4 19.7 R 926 – Tenagra II Observatory, Nogales MPS 603420
2015 04 25.39421 15 20 20.77 +38 41 50.4 19.6 R 926 – Tenagra II Observatory, Nogales MPS 603420
2015 04 25.39492 15 20 20.78 +38 41 47.5 19.7 V I52 – Steward Observatory, Mt. Lemmon Station MPS 603420
2015 04 25.39568 15 20 20.82 +38 41 45.1 19.5 V I52 – Steward Observatory, Mt. Lemmon Station MPS 603420
2015 04 25.39644 15 20 20.84 +38 41 43.1 19.5 V I52 – Steward Observatory, Mt. Lemmon Station MPS 603420
2015 04 25.39720 15 20 20.84 +38 41 40.8 19.5 V I52 – Steward Observatory, Mt. Lemmon Station MPS 603420
2015 04 25.46694 15 20 22.72 +38 38 15.0 19.5 R 926 – Tenagra II Observatory, Nogales MPS 603420
2015 04 25.47586 15 20 22.98 +38 37 48.5 19.6 R 926 – Tenagra II Observatory, Nogales MPS 603420
2015 04 25.48519 15 20 23.25 +38 37 20.5 19.4 R 926 – Tenagra II Observatory, Nogales MPS 603420
2015 04 27.302079 15 21 42.54 +37 03 34.2 20.1 V H21 – Astronomical Research Observatory, Westfield MPS 603420
2015 04 27.305406 15 21 42.65 +37 03 23.0 19.9 V H21 – Astronomical Research Observatory, Westfield MPS 603420
2015 04 27.308630 15 21 42.72 +37 03 12.3 19.8 V H21 – Astronomical Research Observatory, Westfield MPS 603420
2015 04 27.311652 15 21 42.79 +37 03 02.3 19.9 V H21 – Astronomical Research Observatory, Westfield MPS 603420
